TimeCST,TemperatureF,Dew PointF,Humidity,Sea Level PressureIn,VisibilityMPH,Wind Direction,Wind SpeedMPH,Gust SpeedMPH,PrecipitationIn,Events,Conditions,WindDirDegrees,DateUTC
12:15 AM,28.4,26.6,93,30.04,7.0,Calm,Calm,-,N/A,,Clear,0,2013-02-24 06:15:00
12:35 AM,28.4,26.6,93,30.05,10.0,Calm,Calm,-,N/A,,Clear,0,2013-02-24 06:35:00
12:55 AM,28.4,26.6,93,30.06,7.0,Calm,Calm,-,N/A,,Clear,0,2013-02-24 06:55:00
1:15 AM,28.4,26.6,93,30.05,7.0,Calm,Calm,-,N/A,,Clear,0,2013-02-24 07:15:00
1:35 AM,28.4,26.6,93,30.07,10.0,Calm,Calm,-,N/A,,Clear,0,2013-02-24 07:35:00
1:55 AM,26.6,26.6,100,30.07,7.0,Calm,Calm,-,N/A,,Clear,0,2013-02-24 07:55:00
2:15 AM,26.6,26.6,100,30.07,7.0,Calm,Calm,-,N/A,,Clear,0,2013-02-24 08:15:00
2:35 AM,26.6,26.6,100,30.08,5.0,Calm,Calm,-,N/A,,Clear,0,2013-02-24 08:35:00
2:55 AM,26.6,26.6,100,30.06,7.0,Calm,Calm,-,N/A,,Clear,0,2013-02-24 08:55:00
3:15 AM,26.6,26.6,100,30.07,7.0,Calm,Calm,-,N/A,,Clear,0,2013-02-24 09:15:00
3:35 AM,26.6,26.6,100,30.07,5.0,Calm,Calm,-,N/A,,Clear,0,2013-02-24 09:35:00
3:55 AM,26.6,24.8,93,30.07,7.0,Calm,Calm,-,N/A,,Clear,0,2013-02-24 09:55:00
4:15 AM,26.6,24.8,93,30.07,7.0,Calm,Calm,-,N/A,,Clear,0,2013-02-24 10:15:00
4:35 AM,26.6,24.8,93,30.07,7.0,Calm,Calm,-,N/A,,Clear,0,2013-02-24 10:35:00
4:55 AM,23.0,23.0,100,30.08,7.0,Calm,Calm,-,N/A,,Clear,0,2013-02-24 10:55:00
5:15 AM,24.8,23.0,93,30.09,5.0,South,3.5,-,N/A,,Clear,190,2013-02-24 11:15:00
5:35 AM,24.8,23.0,93,30.09,7.0,Calm,Calm,-,N/A,,Clear,0,2013-02-24 11:35:00
6:55 AM,24.8,24.8,100,30.12,10.0,Calm,Calm,-,N/A,,Clear,0,2013-02-24 12:55:00
8:55 AM,35.6,26.6,70,30.16,15.0,East,5.8,-,N/A,,Clear,90,2013-02-24 14:55:00
9:55 AM,37.4,24.8,60,30.15,20.0,SSE,5.8,-,N/A,,Clear,150,2013-02-24 15:55:00
10:55 AM,39.2,24.8,56,30.15,20.0,SE,5.8,-,N/A,,Clear,140,2013-02-24 16:55:00
11:55 AM,44.6,24.8,46,30.14,20.0,SSE,5.8,-,N/A,,Clear,150,2013-02-24 17:55:00
3:55 PM,50.0,26.6,40,30.08,20.0,NE,5.8,-,N/A,,Clear,50,2013-02-24 21:55:00
4:55 PM,48.2,28.4,46,30.07,20.0,East,6.9,-,N/A,,Clear,80,2013-02-24 22:55:00
5:55 PM,44.6,28.4,53,30.08,20.0,ENE,6.9,-,N/A,,Clear,70,2013-02-24 23:55:00
7:15 PM,41.0,28.4,61,30.10,10.0,ENE,4.6,-,N/A,,Clear,70,2013-02-25 01:15:00
7:35 PM,41.0,30.2,65,30.10,10.0,East,5.8,-,N/A,,Clear,80,2013-02-25 01:35:00
7:55 PM,41.0,30.2,65,30.09,10.0,ENE,5.8,-,N/A,,Clear,70,2013-02-25 01:55:00
8:15 PM,41.0,30.2,65,30.09,10.0,ENE,6.9,-,N/A,,Clear,60,2013-02-25 02:15:00
8:35 PM,39.2,30.2,70,30.09,10.0,ENE,5.8,-,N/A,,Clear,70,2013-02-25 02:35:00
8:55 PM,39.2,28.4,65,30.08,10.0,ENE,5.8,-,N/A,,Clear,70,2013-02-25 02:55:00
9:15 PM,37.4,30.2,75,30.08,10.0,ENE,5.8,-,N/A,,Clear,70,2013-02-25 03:15:00
9:35 PM,37.4,30.2,75,30.08,10.0,ENE,4.6,-,N/A,,Clear,70,2013-02-25 03:35:00
9:55 PM,37.4,30.2,75,30.07,10.0,ENE,4.6,-,N/A,,Clear,60,2013-02-25 03:55:00
10:15 PM,37.4,30.2,75,30.07,10.0,East,5.8,-,N/A,,Clear,80,2013-02-25 04:15:00
10:35 PM,37.4,30.2,75,30.07,10.0,ENE,5.8,-,N/A,,Clear,70,2013-02-25 04:35:00
10:55 PM,37.4,30.2,75,30.06,10.0,ENE,5.8,-,N/A,,Clear,70,2013-02-25 04:55:00
11:15 PM,35.6,28.4,75,30.05,10.0,ENE,6.9,-,N/A,,Clear,70,2013-02-25 05:15:00
11:35 PM,37.4,28.4,70,30.04,10.0,East,5.8,-,N/A,,Clear,80,2013-02-25 05:35:00
11:55 PM,37.4,28.4,70,30.04,10.0,ENE,5.8,-,N/A,,Clear,60,2013-02-25 05:55:00